TimeCDT,TemperatureF,Dew PointF,Humidity,Sea Level PressureIn,VisibilityMPH,Wind Direction,Wind SpeedMPH,Gust SpeedMPH,PrecipitationIn,Events,Conditions,WindDirDegrees,DateUTC
12:12 AM,40.3,37.8,91,30.38,10.0,Calm,Calm,-,N/A,,Clear,0,2013-10-14 05:12:00
12:33 AM,40.1,37.6,91,30.38,10.0,Calm,Calm,-,N/A,,Clear,0,2013-10-14 05:33:00
12:52 AM,40.5,38.1,91,30.38,10.0,Calm,Calm,-,N/A,,Clear,0,2013-10-14 05:52:00
1:13 AM,41.9,38.3,87,30.38,10.0,Calm,Calm,-,N/A,,Scattered Clouds,0,2013-10-14 06:13:00
1:33 AM,42.8,38.3,84,30.38,10.0,ESE,3.5,-,N/A,,Mostly Cloudy,110,2013-10-14 06:33:00
1:52 AM,46.0,37.0,71,30.38,10.0,Calm,Calm,-,N/A,,Mostly Cloudy,0,2013-10-14 06:52:00
2:13 AM,43.5,37.8,80,30.38,10.0,Calm,Calm,-,N/A,,Overcast,0,2013-10-14 07:13:00
2:32 AM,42.6,37.4,82,30.37,10.0,Calm,Calm,-,N/A,,Mostly Cloudy,0,2013-10-14 07:32:00
2:53 AM,42.8,37.9,83,30.37,10.0,Calm,Calm,-,N/A,,Overcast,0,2013-10-14 07:53:00
3:13 AM,43.7,37.4,78,30.37,10.0,Calm,Calm,-,N/A,,Overcast,0,2013-10-14 08:13:00
3:32 AM,43.3,37.9,81,30.37,10.0,Calm,Calm,-,N/A,,Overcast,0,2013-10-14 08:32:00
3:53 AM,46.6,35.4,65,30.35,10.0,East,4.6,-,N/A,,Overcast,90,2013-10-14 08:53:00
4:13 AM,46.2,35.6,66,30.35,10.0,ESE,5.8,-,N/A,,Mostly Cloudy,110,2013-10-14 09:13:00
4:33 AM,46.4,35.2,65,30.35,10.0,East,4.6,-,N/A,,Scattered Clouds,90,2013-10-14 09:33:00
4:52 AM,45.7,35.6,68,30.34,10.0,Calm,Calm,-,N/A,,Scattered Clouds,0,2013-10-14 09:52:00
5:13 AM,45.9,35.2,66,30.34,10.0,East,5.8,-,N/A,,Scattered Clouds,100,2013-10-14 10:13:00
5:33 AM,45.0,35.6,70,30.33,10.0,East,5.8,-,N/A,,Clear,90,2013-10-14 10:33:00
5:53 AM,45.0,35.8,70,30.33,10.0,ESE,5.8,-,N/A,,Clear,120,2013-10-14 10:53:00
6:13 AM,44.8,35.6,70,30.33,10.0,ESE,4.6,-,N/A,,Clear,110,2013-10-14 11:13:00
6:32 AM,44.8,35.6,70,30.33,10.0,East,3.5,-,N/A,,Clear,100,2013-10-14 11:32:00
6:53 AM,45.0,36.0,71,30.33,10.0,Calm,Calm,-,N/A,,Scattered Clouds,0,2013-10-14 11:53:00
7:12 AM,45.0,36.1,71,30.33,10.0,Calm,Calm,-,N/A,,Mostly Cloudy,0,2013-10-14 12:12:00
7:32 AM,45.1,36.5,72,30.33,10.0,ESE,5.8,-,N/A,,Overcast,120,2013-10-14 12:32:00
7:53 AM,45.1,36.5,72,30.33,10.0,ESE,5.8,-,N/A,,Overcast,110,2013-10-14 12:53:00
8:12 AM,45.7,36.0,69,30.32,10.0,ESE,8.1,-,N/A,,Overcast,110,2013-10-14 13:12:00
8:33 AM,46.0,36.3,69,30.32,10.0,ESE,6.9,-,N/A,Rain,Light Rain,120,2013-10-14 13:33:00
8:53 AM,45.9,37.2,72,30.33,10.0,SE,5.8,-,N/A,Rain,Light Rain,130,2013-10-14 13:53:00
9:13 AM,45.7,38.3,75,30.33,10.0,SE,6.9,-,N/A,Rain,Light Rain,130,2013-10-14 14:13:00
9:32 AM,45.3,38.8,78,30.34,10.0,SE,8.1,-,N/A,Rain,Rain,130,2013-10-14 14:32:00
9:53 AM,44.4,39.2,82,30.33,10.0,ESE,6.9,-,0.02,Rain,Rain,120,2013-10-14 14:53:00
10:33 AM,44.4,40.1,85,30.30,10.0,East,6.9,-,0.01,Rain,Light Rain,90,2013-10-14 15:33:00
10:52 AM,44.8,40.3,84,30.27,10.0,East,9.2,-,0.01,Rain,Light Rain,90,2013-10-14 15:52:00
11:13 AM,45.1,40.3,83,30.26,10.0,East,9.2,-,N/A,Rain,Light Rain,90,2013-10-14 16:13:00
11:32 AM,45.5,40.1,81,30.25,10.0,East,10.4,-,N/A,Rain,Light Rain,90,2013-10-14 16:32:00
11:52 AM,46.0,40.3,80,30.24,10.0,East,8.1,-,N/A,,Overcast,100,2013-10-14 16:52:00
12:13 PM,46.4,40.5,80,30.23,10.0,East,8.1,-,N/A,Rain,Light Rain,90,2013-10-14 17:13:00
12:32 PM,46.4,40.6,80,30.22,10.0,East,12.7,16.1,N/A,,Overcast,100,2013-10-14 17:32:00
12:53 PM,47.3,40.6,78,30.21,10.0,East,11.5,-,N/A,,Overcast,90,2013-10-14 17:53:00
1:13 PM,47.5,40.5,77,30.18,10.0,East,9.2,16.1,N/A,,Overcast,90,2013-10-14 18:13:00
1:32 PM,47.8,40.3,75,30.17,10.0,East,12.7,-,N/A,,Overcast,90,2013-10-14 18:32:00
1:53 PM,48.2,39.7,73,30.16,10.0,East,11.5,-,N/A,,Overcast,80,2013-10-14 18:53:00
2:12 PM,47.8,39.9,74,30.14,10.0,East,11.5,17.3,N/A,Rain,Light Rain,90,2013-10-14 19:12:00
2:33 PM,48.2,39.9,73,30.13,10.0,East,12.7,18.4,N/A,,Overcast,90,2013-10-14 19:33:00
2:53 PM,47.5,40.8,78,30.13,10.0,East,11.5,-,N/A,Rain,Light Rain,90,2013-10-14 19:53:00
3:12 PM,46.8,41.4,81,30.14,10.0,East,8.1,-,0.02,Rain,Rain,90,2013-10-14 20:12:00
3:33 PM,46.0,41.9,85,30.10,10.0,ENE,9.2,-,0.03,Rain,Light Rain,70,2013-10-14 20:33:00
3:53 PM,46.4,42.1,85,30.10,10.0,East,8.1,-,0.03,Rain,Rain,80,2013-10-14 20:53:00
4:13 PM,46.0,42.1,86,30.09,10.0,ENE,11.5,-,0.01,Rain,Light Rain,70,2013-10-14 21:13:00
4:33 PM,46.2,41.9,85,30.09,10.0,ENE,8.1,-,0.01,Rain,Light Rain,70,2013-10-14 21:33:00
4:52 PM,46.6,41.4,82,30.09,10.0,ENE,8.1,-,0.01,Rain,Light Rain,60,2013-10-14 21:52:00
5:13 PM,46.8,41.9,83,30.10,10.0,East,8.1,-,N/A,Rain,Light Rain,80,2013-10-14 22:13:00
5:33 PM,46.9,41.9,83,30.11,10.0,East,6.9,-,N/A,Rain,Light Rain,80,2013-10-14 22:33:00
5:52 PM,46.8,42.3,84,30.09,10.0,East,11.5,-,0.02,Rain,Light Rain,80,2013-10-14 22:52:00
6:13 PM,46.0,42.1,86,30.05,10.0,East,13.8,-,0.01,Rain,Light Rain,80,2013-10-14 23:13:00
6:32 PM,45.9,42.3,87,30.05,7.0,East,11.5,18.4,0.04,Rain,Light Rain,80,2013-10-14 23:32:00
6:53 PM,45.9,42.3,87,30.05,10.0,East,11.5,18.4,0.07,Rain,Rain,80,2013-10-14 23:53:00
7:12 PM,45.7,42.3,88,30.04,7.0,ENE,11.5,17.3,0.03,Rain,Light Rain,70,2013-10-15 00:12:00
7:33 PM,45.5,42.3,88,30.03,7.0,ENE,13.8,19.6,0.06,Rain,Light Rain,70,2013-10-15 00:33:00
7:52 PM,45.7,41.9,87,30.03,7.0,ENE,13.8,17.3,0.09,Rain,Light Rain,70,2013-10-15 00:52:00
8:13 PM,45.5,42.1,88,30.01,7.0,ENE,13.8,21.9,0.04,Rain,Rain,70,2013-10-15 01:13:00
8:33 PM,45.5,42.4,89,29.99,7.0,East,16.1,19.6,0.09,Rain,Rain,80,2013-10-15 01:33:00
8:53 PM,45.5,42.8,90,29.98,7.0,East,18.4,26.5,0.15,Rain,Rain,80,2013-10-15 01:53:00
9:13 PM,45.5,43.0,91,29.97,7.0,East,18.4,25.3,0.03,Rain,Light Rain,80,2013-10-15 02:13:00
9:32 PM,45.7,43.0,90,29.97,7.0,East,16.1,33.4,0.06,Rain,Light Rain,90,2013-10-15 02:32:00
9:53 PM,45.9,43.2,90,29.94,7.0,East,21.9,33.4,0.08,Rain,Rain,90,2013-10-15 02:53:00
10:13 PM,45.7,43.7,93,29.95,4.0,East,18.4,27.6,0.05,Rain,Rain,100,2013-10-15 03:13:00
10:32 PM,45.9,44.1,93,29.93,4.0,East,21.9,29.9,0.09,Rain,Rain,90,2013-10-15 03:32:00
10:53 PM,46.0,44.2,93,29.91,7.0,East,20.7,32.2,0.12,Rain,Light Rain,90,2013-10-15 03:53:00
11:12 PM,46.6,44.8,93,29.91,5.0,East,21.9,29.9,0.02,Rain,Rain,90,2013-10-15 04:12:00
11:33 PM,46.9,44.6,92,29.89,10.0,East,20.7,31.1,0.02,Rain,Light Rain,80,2013-10-15 04:33:00
11:52 PM,46.9,44.8,92,29.89,10.0,East,17.3,24.2,0.02,,Overcast,90,2013-10-15 04:52:00